ONEWEB-0202, 48224

Orbit data source: Space-Track

ONEWEB-0202, 48224 is a payload satellite owned by One Web (NAA) (UK) in LEO that was launched on Sun, 25 Apr 2021 UTC via a SOYUZ-2-1B launch vehicle from the Vostochny Cosmodrome (VOSTO). Payload-class satellites include a variety of spacecraft equipped with specific instruments for various scientific and technological missions. These include communications satellites like Starlink; space stations such as the ISS; scientific satellites like the Hubble; Earth observation satellites from companies like Planet Labs, Umbra, and HawkEye 360; GPS; miniature CubeSats for education and research; and military/defense satellites.

Loading next visibility...
Identifier
48224, 2021-031Q
Orbit
LEO
Country
Flag of UKUK
Related business
Manufacturer
One Web
Mission
Operational Commercial Communications
Bus & Motor
ARROW, Unknown motor
Mass
148 kg wet, ~140 kg dry
Launch date (UTC)
2021-04-25 (5 years ago)
Launch vehicle
SOYUZ-2-1B
Launch site
Vostochny Cosmodrome (VOSTO)
Object type
Payload
Rocket body
Debris
Shape & HBR
Trap Box + 2 Pan, 6.7 m
Radar Cross Section
3.464 m², Large (>1 m²)

Expand to show TLE details & history
Last TLE update: 2 days ago

TLE from 2 days ago
0 ONEWEB-0202
1 48224U 21031Q   26171.40131714  .00000185  00000-0  46542-3 0  9993
2 48224  87.8972 289.0682 0001981 121.2825 238.8499 13.14502951248781
Epoch: 2026-06-20T09:37Z
TLE epoch observation values (Epoch: 2026-06-20T09:37:53.800Z)
Latitude
-0.00003°
Longitude
-124.02244°
Altitude
1,209.461 km
Speed
7.249 km/s
True Right ascension
19h 16m 16s
True Declination
0° 00' 00"
Sunlit
Object was in full shadow at epoch
Visualization orbit readout
Latitude
Unknown
Longitude
Unknown
Altitude
Unknown
Speed
Unknown
Apparent Right ascension
Unknown
Apparent Declination
Unknown
Sunlit
N/A
Visualization observer readout
Local Sidereal Time
21:43:07
Azimuth
Unknown
Elevation
Unknown
Doppler factor
Unknown
Orbital elements
Apogee altitude
1,204.405 km
Perigee altitude
1,201.402 km
Semi-major axis
7,581.04 km
Eccentricity
0.0002
Inclination
87.8972°
RAAN
289.0682°
Arg. of periapsis
121.2825°
True anomaly
238.83047°
Mean anomaly
238.8499°
Eccentric anomaly
238.84019°
Mean motion
3.28814 °/min
Orbital period
109.48 mins
BSTAR
0.00046542
Loading maneuver chart data...
Computing Atmospheric mass density...
Loading historical data...
Loading historical data...
Loading historical data...
Loading historical data...
Loading historical data...
Loading historical data...
Loading historical data...

Documentation

Showing up to 5 results
|